Regional Weather Roundup
Issued by NWS Newport/Morehead, NC

Current Version | Previous Version | Graphics & Text | Print | Product List | Glossary Off
Versions: 1 2 3 4 5 6 7 8 9 10 11 12 13 14 15 16 17 18 19 20 21 22 23 24 25 26 27 28 29 30 31 32 33 34 35 36 37 38 39 40 41 42 43 44 45 46 47 48 49 50
000 ASUS42 KMHX 080325 RWRMHX WEATHER ROUNDUP FOR EASTERN NORTH CAROLINA NATIONAL WEATHER SERVICE NEWPORT/MOREHEAD CITY NC 1100 PM EDT TUE JUL 07 2015 NOTE: "FAIR" INDICATES FEW OR NO CLOUDS BELOW 12,000 FEET WITH NO SIGNIFICANT WEATHER AND/OR OBSTRUCTIONS TO VISIBILITY NCZ015>017-031-032-045>047-102-103-080400- NORTH COAST CITY SKY/WX TMP DP RH WIND PRES REMARKS EDENTON N/A 80 73 81 SW10G16 30.11S ELIZABETH CITY CLEAR 81 73 76 S13 30.10R KITTY HAWK CLEAR 80 73 77 SW8 30.10S MANTEO CLEAR 80 73 81 SW13 30.12S $$ NCZ045>047-081-094-103-104-080400- CENTRAL COAST CITY SKY/WX TMP DP RH WIND PRES REMARKS FRISCO CLEAR 77 75 93 SW12 30.14R SWANQUARTER N/A 81 N/A N/A SW10G21 30.09S $$ NCZ095-097-098-100-101-080400- SOUTHERN COAST CITY SKY/WX TMP DP RH WIND PRES REMARKS BEAUFORT CLEAR 80 77 90 SW15 30.15R CEDAR ISLAND N/A 79 N/A N/A S8 30.18S JACKSONVILLE CLEAR 77 73 87 S3 30.14R PINEY ISLAND CLEAR N/A N/A N/A SW7 30.14R WILMINGTON CLEAR 79 73 82 SW6 30.15R $$ NCZ011>013-027>030-043-044-078>080-089-090>093-098-080400- COASTAL PLAIN CITY SKY/WX TMP DP RH WIND PRES REMARKS AHOSKIE CLEAR 79 73 81 S6 30.09S CLINTON CLEAR 77 74 91 CALM 30.13S ELIZABETHTOWN CLEAR 78 74 88 S3 30.13S GOLDSBORO CLEAR 79 72 79 S5 30.10R GREENVILLE CLEAR 81 72 74 SW10 30.13R HAVELOCK PTCLDY 79 74 84 SW8 30.15R KENANSVILLE CLEAR 77 71 80 CALM 30.14S KINSTON CLEAR 80 72 76 S9 30.13R NEW BERN CLEAR 78 74 87 S7 30.15R RICHLANDS CLEAR 75 68 78 S6 30.14F ROCKY MOUNT CLEAR 81 71 71 S7 30.11R WASHINGTON CLEAR 78 73 84 S7 30.12F WHITEVILLE PTCLDY 78 74 86 S6 30.13S $$ AMZ130-135-150-152-154-156-158-170-250-252-270-ANZ085-086-088-633-658-670-080400- MARINE OBSERVATIONS STATION/POSITION TIME TEMP WIND PRES WAVE SWELL AIR SEA DIR/SP/G HT/PER HT/PER (UTC) (F) (DEG/KT/KT) (MB) (FT/S) (FT/S) CHESAPEAKE LIGHT 0300 81 210/ 20/ 21 1018.5 64 E VA BEACH 0250 79 77 220/ 16/ 19 1018.6 4/ 8 2/ 8 DUCK 0300 82 66 210/ 13/ 17 N/A 2 E DUCK 0211 77 N/A 2/13 2/13 OREGON INLET 0200 82 85 210/ 16/ 18 1019.5 13E OREGON INLT 0300 78 N/A 3/ 4 2/13 HATTERAS CG 0300 80 82 220/ 11/ 14 1020.4 DIAMOND BUOY 0250 81 83 230/ 17/ 21 1020.3 3/ 4 2/ 9 CAPE LOOKOUT 0300 80 210/ 9/ 11 1020.8 BEAUFORT LAB 0300 80 83 220/ 8/ 13 1020.3 30 SE NEW RVR IN NOT AVBL 27 SE WRIGHTSVLE 0300 80 230/ 10/ 12 N/A 5 SE WRIGHTSVLE 0208 80 80 210/ 12/ 16 1020.6 225 S CAPE HAT 0250 82 81 200/ 8/ 10 1023.5 4/ 8 3/ 8 41 SE CHARLESTON 0250 83 83 200/ 14/ 16 1020.7 3/ 9 2/ 9 $$

USA.gov is the U.S. government's official web portal to all federal, state and local government web resources and services.